Погода в Новозавидовском

Россия / Тверская область     56°33′11″N   36°26′06″E
В апреле 2022 года жителям России запретили посещать сайт meteo.paraplan.net по решению Генеральной прокуратуры. Аудитория сайта уменьшилась в 10 раз. Владельцы сайта не видят смысла в поддержке погодного сервера в таких условиях. Сайт будет закрыт в октябре.
темп.,
°C
ветер,
м/с
пор.,
м/с
влажн.,
%
обл.,
%
осадки,
мм/ч
давл.,
гПа
погр.,
м
25 сентября, вс
вс2500:00+8ссз4997100 0.5 997532
03:00+8ссз3799100 0.8 997383
06:00+8ссв3697100 0.6 998439
09:00+7св369498 0.8 1000461
12:00+8св3490100 0.3 1002439
15:00+7св2494100 0.8 1003316
18:00+7с1393100 0.1 1004125
21:00+7ссз1395100 0.3 1005116
26 сентября, пн
пн2600:00+7ссз1396100 0.6 1006196
03:00+7ссз1294100 0.8 100669
06:00+6сз1293100 0.2 100756
09:00+8сз128496 0.3 1008290
12:00+10з237478 0.4 1008926
15:00+9з3583100 1.3 1009532
18:00+8з268996 0.3 1010220
21:00+6зюз2495100 0.4 101182
27 сентября, вт
вт2700:00+5зюз2396100 0.1 101264
03:00+5ююз129698 0.1 101228
06:00+6ююв1193100 0.0 101233
09:00+8ююв128584 0.0 1013170
12:00+11ююв226783 0.0 1013806
15:00+13юв225854 0.1 10131218
18:00+10в237528 0.0 101366
21:00+7вюв258616 0.0 101486
28 сентября, ср
ср2800:00+6вюв279182 0.0 1014144
03:00+5в31093100 0.0 1013268
06:00+5в4129299 0.0 1013363
09:00+8в51379100 0.0 1012644
12:00+11в61368100 0.0 10111134
15:00+9в61380100 0.6 10101008
18:00+7в71592100 2.8 1010942
21:00+6в71493100 4.3 1009821
29 сентября, чт
чт2900:00+6в61394100 1.9 1009689
03:00+6в51294100 2.5 1009638
06:00+6в41194100 0.5 1010606
09:00+5в41095100 1.6 1011578
12:00+5в4993100 0.4 1013565
15:00+5всв4793100 0.6 1015482
18:00+4в4894100 0.0 1017457
21:00+4в389496 0.0 1019479